Regional Weather Roundup
Issued by NWS

Home | Current Version | Previous Version | Text Only | Print | Product List | Glossary On
Versions: 1 2 3 4 5 6 7 8 9 10 11 12 13 14 15 16 17 18 19 20 21 22 23 24 25 26 27 28 29 30 31 32 33 34 35 36 37 38 39 40 41 42 43 44 45 46 47 48 49 50
897
ASUS46 KLOX 060213
RWRCA

SOUTHERN CALIFORNIA WEATHER ROUNDUP
NATIONAL WEATHER SERVICE OXNARD CALIFORNIA
700 PM PDT THU MAY 05 2016

NOTE: "FAIR" INDICATES FEW OR NO CLOUDS BELOW 12,000 FEET WITH NO
SIGNIFICANT WEATHER AND/OR OBSTRUCTIONS TO VISIBILITY.

  -  STATIONS PRECEEDED BY AN ASTERISK (*) ARE NOT NWS OR FAA
     STATIONS AND ARE NOT SUBJECT TO NWS AND FAA QUALITY CONTROL.

CAZ041-042-087-060300-
LA AND ORANGE COUNTY COASTAL AREAS


CITY           SKY/WX    TMP DP  RH WIND       PRES   REMARKS
L.A. DOWNTOWN  CLOUDY    64  46  52 CALM      29.86S
L.A. AIRPORT   MOCLDY    63  49  60 W9        29.86F
LONG BEACH     CLOUDY    63  52  67 S5        29.86F

CITY           SKY/WX    TMP DP  RH WIND       PRES   REMARKS
AVALON           N/A     64 N/A N/A MISG        N/A
FULLERTON      CLOUDY    64  49  57 SW6       29.85F
HAWTHORNE      CLOUDY    63  50  62 W9        29.86F
*LOS ALAMITOS  FAIR      64  52  66 SW9       29.86F
*REDONDO BEACH   N/A     63  53  68 CALM      29.86S
SANTA ANA      MOCLDY    63  50  62 SW9       29.86F
STA MONICA APT CLOUDY    62  50  64 W6        29.86F
*STA MON PIER    N/A     61  55  79 W6        29.80S
TORRANCE       MOCLDY    66  52  59 S6        29.87F
*UCLA            N/A     61  46  59 SW6       29.83S

$$

CAZ547-548-048-060300-
LA COUNTY VALLEYS AND INLAND EMPIRE


CITY           SKY/WX    TMP DP  RH WIND       PRES   REMARKS
BURBANK        CLOUDY    60  46  59 S6        29.86
VAN NUYS       CLOUDY    60  46  59 S6        29.85F

CITY           SKY/WX    TMP DP  RH WIND       PRES   REMARKS
CORONA AIRPORT CLOUDY    63  47  55 W10G17    29.85S
*CHATSWORTH      N/A     60  49  68 NW3       29.87S
CHINO          MOCLDY    63  48  58 W10       29.86F
MARCH AFB      MOCLDY    60  46  60 S5        29.85R
*NORTHRIDGE      N/A     59  46  63 W1          N/A
ONTARIO        MOCLDY    60  47  61 NW13      29.85F
*PASADENA        N/A     61  50  67 E6          N/A
RIVERSIDE      CLOUDY    63  44  50 W13G21    29.84F
SAN BERNARDINO MOCLDY    63  45  51 W14       29.85F
*SAN GABRIEL     N/A     63  48  59 SW3       29.93S
*WHITEMAN AP   CLOUDY    59  46  63 S6        29.89F
*WOODLAND HILL   N/A     59  46  63 S7          N/A

$$

CAZ054-055-060300-
LA AND SAN BERNARDINO COUNTY MOUNTAINS


CITY           SKY/WX    TMP DP  RH WIND       PRES   REMARKS
*BIG BEAR AIRP PTCLDY    39  30  70 W6        29.89S WCI  35
*CHILAO          N/A     40  40 100 S10         N/A  WCI  33
SANDBERG       MOCLDY    49  42  77 S12G23    29.86F
*WARM SPRINGS    N/A     47  33  59 CALM        N/A

$$

CAZ028-029-059-060-099-060300-
ANTELOPE VALLEY AND SURROUNDING AREAS


CITY           SKY/WX    TMP DP  RH WIND       PRES   REMARKS
LANCASTER      PTCLDY    57  43  59 SW20G26   29.82F
PALMDALE       PTCLDY    56  44  64 SW21      29.82R

CITY           SKY/WX    TMP DP  RH WIND       PRES   REMARKS
29 PALMS       PTCLDY    68  32  26 SW20      29.79R
BARSTOW/DAGGET PTCLDY    68  39  34 SW25G32   29.73S
BISHOP         MOCLDY    67  18  15 S24G36    29.69R
CHINA LAKE     PTCLDY    67  41  38 S31G39    29.68F
EDWARDS AFB    PTCLDY    59  43  55 SW24G33   29.77S
MOJAVE         CLEAR     57  43  58 SW20G30   29.79F
NEEDLES        CLOUDY    85  32  15 SW20G26   29.63R
VICTORVILLE    CLEAR     57  39  51 S22G31    29.80S

$$

CAZ039-040-060300-
VENTURA AND SANTA BARBARA COUNTY COAST


CITY           SKY/WX    TMP DP  RH WIND       PRES   REMARKS
CAMARILLO      CLOUDY    63  50  62 SW10      29.86S
NWS OXNARD       N/A     62  50  63 SW5       29.85S
OXNARD AIRPORT CLOUDY    62  52  69 SW8       29.86F
*POINT MUGU    CLOUDY    62  53  72 SW7       29.87S
SBA APT/GOLETA CLOUDY    60  53  77 W8        29.86F
*SANTA BARBARA   N/A     64  51  62 NE3       29.94S
*VENTURA         N/A     61  53  75 SW3       29.84S

$$

CAZ044-045-060300-
VENTURA COUNTY VALLEYS


CITY           SKY/WX    TMP DP  RH WIND       PRES   REMARKS
*SIMI VALLEY     N/A     58  50  76 W3        29.83S
*WESTLAKE VILL   N/A     58  48  71 CALM      29.85S
*OJAI            N/A     60  49  68 CALM      29.81S
*FILLMORE        N/A     62  50  65 CALM      29.75S

$$

CAZ053-060300-
VENTURA COUNTY MOUNTAINS


CITY           SKY/WX    TMP DP  RH WIND       PRES   REMARKS
*LOCKWOOD VLY    N/A     45  36  70 S2          N/A
*ROSE VALLEY     N/A     50  48  93 MISG        N/A

$$

CAZ034-035-036-060300-
CENTRAL COAST AND SANTA YNEZ VALLEY


CITY           SKY/WX    TMP DP  RH WIND       PRES   REMARKS
SAN LUIS OBISP MOCLDY    61  54  77 SW7       29.86S
SANTA MARIA    CLOUDY    59  54  83 SW9       29.87S

CITY           SKY/WX    TMP DP  RH WIND       PRES   REMARKS
*CAL POLY SLO    N/A     61  52  72 S7          N/A
*LOMPOC        CLOUDY    62  51  67 S7        29.86S
*PISMO BEACH     N/A     59  56  88 CALM      29.87S
*SANTA YNEZ    CLOUDY    61  46  59 W6        29.86F

$$

CAZ037-038-051-060300-
SAN LUIS OBISPO COUNTY INTERIOR AND CUYAMA VALLEY


CITY           SKY/WX    TMP DP  RH WIND       PRES   REMARKS
*CUYAMA          N/A     55  47  73 W13       29.80S
PASO ROBLES    PTCLDY    60  48  64 S10       29.85R

$$

CAZ032-033-061-060300-
SOUTHERN DESERTS


CITY           SKY/WX    TMP DP  RH WIND       PRES   REMARKS
BLYTHE         CLEAR     81  41  24 W22       29.64S
IMPERIAL       CLEAR     73  41  31 W18G36    29.69R
PALM SPRINGS   CLEAR     74  40  29 NW10G23   29.71F
THERMAL        CLEAR     78  36  21 N15       29.66S

$$

ELSEWHERE ACROSS THE WESTERN UNITED STATES AND MEXICO


CITY           SKY/WX    TMP DP  RH WIND       PRES   REMARKS
DEATH VALLEY,    N/A     85  35  16 S2          N/A
DENVER, CO     CLOUDY    64  42  44 SE13      30.01R
GRAND CANYON,  CLEAR     66  12  12 S12       29.95S
HONOLULU, HI   MOSUNNY   82  70  65 S9        29.99S
KAHULUI, MAUI  MOSUNNY   84  68  58 S14       29.96
LAKE TAHOE, CA RAIN      41  38  89 VRB3      29.91R FOG
LAS VEGAS, NV  CLOUDY    80  23  12 S10       29.62S
MAMMOTH LAKES, MOCLDY    46  30  54 NW9       29.83S
MEXICO CITY, M PTCLDY    73  45  35 NE18      30.25R
PHOENIX, AZ    PTCLDY    87  34  15 W29G37    29.65R
PORTLAND, OR   PTSUNNY   69  43  38 NW10G17   29.93S
RENO, NV       LGT RAIN  48  43  82 VRB3      29.90S
SALT LAKE CITY CLOUDY    79  29  16 SE10      29.75F
SAN DIEGO, CA  MOCLDY    65  48  54 SW6       29.87F
SAN FRANCISCO, PTSUNNY   63  56  78 NW13      29.85F
SAN JOSE, CA   PTSUNNY   64  52  64 NW10      29.84S
SEATTLE, WA    MOSUNNY   66  48  52 N10       30.01S
TIJUANA, MEX   PTCLDY    63  45  51 W6        29.87F

$$

STATION/POSITION TIME  TEMP    WIND        PRES    VSBY  WAVE
                       AIR SEA DIR/SP/G                  HT/PER
                 (UTC) (F)     (DEG/KT/KT) (MB)    (MI)  (FT/S)
POINT ARGUELLO B NOT AVBL
WEST SANTA BARBA 0150   58 58  210/  4/  6 1010.8F         6/11
POINT CONCEPTION NOT AVBL
EAST SANTA BARBA 0100   60 59  250/  8/ 10 1011.9F
SANTA MONICA BAY 0150   60 61  250/  2/  4 1011.3F         4/10



USA.gov is the U.S. government's official web portal to all federal, state and local government web resources and services.